Key statistics
Satellite CZ-6A DEB at a glance.
Uptime
826
Days in orbit
Revolutions
≈ 14.5
Per day
Orbit
SSO
Sun Synchronous Orbit
Inclination
98.7
Latest
Satellite identification and parameters
Extended collection of information and parameters for CZ-6A DEB.
Object identification
Identified? True
Debris? True
Object name: CZ-6A DEB
International designator: 2022-151AHU
Object number (NORAD): 57577
Object ID (CCSDS): 57577
Country: PEOPLES REPUBLIC OF CHINA (PRC)
Current information (Y/N): Y
RCS size: SMALL
Orbital parameters
Decay date: Feb. 14, 2025
Period: 99.13 minutes
Inclination: 98.6734 deg
SMA: 7095.165 km
Apoapsis: 797.485 km
Periapsis: 636.574 km
RAAN: 68.0981 deg
Eccentricy: 0.0113395
Argument of periapsis: 5.6623 deg
Mean anomaly: 354.5824 deg
Mean motion: 14.52643484 rev/day
Mean motion (dot): 0.00028046 rev/day2
B* drag term: 0.0062819 1/REarth
Two-line elements (TLE)
Creation date: Feb. 11, 2024, 10:56 p.m.
Reference frame: TEME
Reference center: EARTH
Epoch: Feb. 11, 2024, 12:39 p.m. UTC
TLE line 0: 0 CZ-6A DEB
TLE line 1: 1 57577U 22151AHU 24042.52740618 .00028046 00000-0 62819-2 0 9995
TLE line 2: 2 57577 98.6734 68.0981 0113395 5.6623 354.5824 14.52643484 43500
Live tracking on map
Satellite CZ-6A DEB has decayed and is no longer in orbit. No tracking available.
In-orbit conjunctions
Satellite CZ-6A DEB has decayed and is no longer in orbit. No conjunctions available.
Associated space launch
Chinese satellite reported for atmospheric/ocean/environmental/spatial parameter research purposes, details TBD.
CZ-6A DEB was lifted into orbit during the mission ‘Long March 6A | Yunhai 3’, on board a Long March 6A space rocket.
The launch took place on Nov. 11, 2022, 10:52 p.m. from Launch Complex 9A.
For more information about the launch, click the button.
Long March 6A | Yunhai 3
Agency: N/A
Status: Launch Successful
Launch date: Nov. 11, 2022, 10:52 p.m. UTC
Rocket: Long March 6A
Launch pad: Launch Complex 9A
Location: Taiyuan Satellite Launch Center, People's Republic of China
...
Latest news about this satellite
There are no fresh news available about this satellite. Check back as we update our databases every day.
Newsletter sign-up
Weekly statistics, charts and insights to help you stay on top of the space industry.
